When you browse on this site, cookies collect data to enhance your experience and personalize the content and advertising you see.
Visit our Privacy Policy to learn more. By continuing to use the site, you agree to this use of cookies and data.

Hourly Weather Blyth

Today, 16 July, Thursday

Time Temperature Precipitation Wind Pressure Humidity
00:00 +13°C° 0 mm 5 mps 760 mmHg 88%
01:00 +13°C° 0 mm 5 mps 760 mmHg 87%
02:00 +13°C° 0 mm 5 mps 760 mmHg 86%
03:00 +13°C° 0 mm 5 mps 761 mmHg 86%
04:00 +14°C° 0 mm 5 mps 761 mmHg 85%
05:00 +14°C° 0 mm 5 mps 761 mmHg 85%
06:00 +14°C° 0 mm 5 mps 761 mmHg 82%
07:00 +15°C° 0 mm 4 mps 762 mmHg 80%
08:00 +18°C° 0 mm 4 mps 762 mmHg 77%
09:00 +19°C° 0 mm 3 mps 762 mmHg 75%
10:00 +20°C° 0 mm 4 mps 762 mmHg 75%
11:00 +20°C° 0 mm 4 mps 762 mmHg 75%
12:00 +21°C° 0 mm 4 mps 762 mmHg 75%
13:00 +21°C° 0 mm 5 mps 762 mmHg 75%
14:00 +21°C° 0 mm 5 mps 762 mmHg 74%
15:00 +22°C° 0 mm 5 mps 762 mmHg 74%
16:00 +21°C° 0 mm 5 mps 762 mmHg 75%
17:00 +21°C° 0 mm 5 mps 762 mmHg 76%
18:00 +21°C° 0 mm 5 mps 762 mmHg 78%
19:00 +19°C° 0 mm 5 mps 763 mmHg 82%
20:00 +18°C° 0 mm 4 mps 763 mmHg 86%
21:00 +17°C° 0 mm 4 mps 763 mmHg 89%
22:00 +15°C° 0 mm 4 mps 763 mmHg 90%
23:00 +15°C° 0 mm 4 mps 763 mmHg 90%

Tomorrow, 17 July, Friday

Time Temperature Precipitation Wind Pressure Humidity
00:00 +14°C° 0 mm 4 mps 763 mmHg 91%
01:00 +14°C° 0 mm 4 mps 762 mmHg 91%
02:00 +14°C° 0 mm 4 mps 762 mmHg 92%
03:00 +14°C° 0 mm 4 mps 762 mmHg 92%
04:00 +15°C° 0 mm 4 mps 762 mmHg 90%
05:00 +15°C° 0 mm 4 mps 761 mmHg 88%
06:00 +16°C° 0 mm 5 mps 761 mmHg 87%
07:00 +17°C° 0 mm 5 mps 761 mmHg 83%
08:00 +19°C° 0 mm 5 mps 761 mmHg 79%
09:00 +20°C° 0 mm 6 mps 761 mmHg 76%
10:00 +20°C° 0 mm 6 mps 761 mmHg 76%
11:00 +20°C° 0 mm 6 mps 761 mmHg 76%
12:00 +20°C° 0 mm 6 mps 761 mmHg 75%
13:00 +20°C° 0.1 mm 6 mps 761 mmHg 77%
14:00 +19°C° 0.1 mm 6 mps 761 mmHg 78%
15:00 +19°C° 0.1 mm 5 mps 761 mmHg 80%
16:00 +17°C° 0 mm 5 mps 761 mmHg 81%
17:00 +17°C° 0 mm 5 mps 761 mmHg 81%
18:00 +17°C° 0 mm 5 mps 761 mmHg 82%
19:00 +17°C° 0 mm 5 mps 761 mmHg 83%
20:00 +17°C° 0 mm 4 mps 761 mmHg 85%
21:00 +17°C° 0 mm 3 mps 761 mmHg 86%
22:00 +17°C° 0 mm 3 mps 761 mmHg 87%
23:00 +16°C° 0 mm 2 mps 761 mmHg 89%

Day after tomorrow, 18 July, Saturday

Time Temperature Precipitation Wind Pressure Humidity
00:00 +16°C° 0 mm 1 mps 761 mmHg 90%
01:00 +16°C° 0.1 mm 1 mps 761 mmHg 91%
02:00 +15°C° 0.1 mm 2 mps 761 mmHg 91%
03:00 +15°C° 0.1 mm 2 mps 760 mmHg 91%
04:00 +15°C° 0.1 mm 2 mps 760 mmHg 89%
05:00 +15°C° 0.1 mm 2 mps 760 mmHg 87%
06:00 +15°C° 0.1 mm 2 mps 760 mmHg 84%
07:00 +16°C° 0 mm 3 mps 760 mmHg 79%
08:00 +16°C° 0 mm 3 mps 760 mmHg 73%
09:00 +17°C° 0 mm 3 mps 760 mmHg 67%
10:00 +18°C° 0 mm 3 mps 760 mmHg 66%
11:00 +18°C° 0 mm 4 mps 760 mmHg 65%
12:00 +18°C° 0 mm 4 mps 760 mmHg 63%
13:00 +18°C° 0 mm 4 mps 760 mmHg 62%
14:00 +19°C° 0 mm 4 mps 760 mmHg 61%
15:00 +19°C° 0 mm 3 mps 760 mmHg 61%
16:00 +18°C° 0 mm 3 mps 760 mmHg 63%
17:00 +18°C° 0 mm 4 mps 760 mmHg 66%
18:00 +17°C° 0 mm 4 mps 760 mmHg 69%
19:00 +15°C° 0 mm 4 mps 760 mmHg 73%
20:00 +13°C° 0 mm 4 mps 760 mmHg 78%
21:00 +12°C° 0 mm 4 mps 761 mmHg 82%
22:00 +11°C° 0 mm 4 mps 761 mmHg 83%
23:00 +11°C° 0 mm 4 mps 761 mmHg 84%

19 July, Sunday

Time Temperature Precipitation Wind Pressure Humidity
00:00 +10°C° 0 mm 4 mps 761 mmHg 84%
01:00 +10°C° 0 mm 4 mps 761 mmHg 84%
02:00 +10°C° 0 mm 4 mps 761 mmHg 84%
03:00 +10°C° 0 mm 4 mps 761 mmHg 84%
04:00 +10°C° 0 mm 4 mps 761 mmHg 82%
05:00 +9°C° 0 mm 5 mps 761 mmHg 81%
06:00 +10°C° 0 mm 5 mps 761 mmHg 79%
07:00 +12°C° 0 mm 5 mps 761 mmHg 75%
08:00 +13°C° 0 mm 5 mps 761 mmHg 70%
09:00 +15°C° 0 mm 5 mps 761 mmHg 66%
10:00 +15°C° 0 mm 4 mps 761 mmHg 63%
11:00 +17°C° 0 mm 4 mps 761 mmHg 60%
12:00 +18°C° 0 mm 3 mps 761 mmHg 57%
13:00 +18°C° 0.2 mm 3 mps 761 mmHg 59%
14:00 +18°C° 0.2 mm 4 mps 761 mmHg 61%
15:00 +18°C° 0.2 mm 4 mps 761 mmHg 62%
16:00 +17°C° 0.3 mm 4 mps 761 mmHg 64%
17:00 +17°C° 0.3 mm 4 mps 761 mmHg 66%
18:00 +15°C° 0.3 mm 4 mps 761 mmHg 68%
19:00 +14°C° 0 mm 4 mps 762 mmHg 70%
20:00 +13°C° 0 mm 4 mps 762 mmHg 72%
21:00 +12°C° 0 mm 5 mps 762 mmHg 73%
22:00 +10°C° 0 mm 5 mps 762 mmHg 75%
23:00 +10°C° 0 mm 5 mps 762 mmHg 77%

20 July, Monday

Time Temperature Precipitation Wind Pressure Humidity
00:00 +9°C° 0 mm 6 mps 762 mmHg 79%
01:00 +9°C° 0 mm 6 mps 762 mmHg 81%
02:00 +8°C° 0 mm 6 mps 762 mmHg 83%
03:00 +8°C° 0 mm 6 mps 762 mmHg 85%
04:00 +8°C° 0 mm 6 mps 762 mmHg 83%
05:00 +9°C° 0 mm 6 mps 762 mmHg 82%
06:00 +9°C° 0 mm 6 mps 762 mmHg 81%
07:00 +12°C° 0 mm 5 mps 763 mmHg 75%
08:00 +13°C° 0 mm 5 mps 763 mmHg 70%
09:00 +15°C° 0 mm 4 mps 763 mmHg 65%
10:00 +15°C° 0.1 mm 4 mps 763 mmHg 63%
11:00 +17°C° 0.1 mm 4 mps 763 mmHg 62%
12:00 +17°C° 0.1 mm 3 mps 763 mmHg 60%
13:00 +17°C° 0.3 mm 3 mps 763 mmHg 64%
14:00 +16°C° 0.3 mm 2 mps 764 mmHg 68%
15:00 +16°C° 0.3 mm 2 mps 764 mmHg 71%
16:00 +16°C° 0.2 mm 2 mps 764 mmHg 72%
17:00 +15°C° 0.2 mm 1 mps 764 mmHg 73%
18:00 +15°C° 0.2 mm 1 mps 764 mmHg 74%
19:00 +14°C° 0.1 mm 1 mps 764 mmHg 77%
20:00 +14°C° 0.1 mm 1 mps 765 mmHg 80%
21:00 +13°C° 0.1 mm 1 mps 765 mmHg 82%
22:00 +12°C° 0 mm 1 mps 765 mmHg 84%
23:00 +11°C° 0 mm 1 mps 765 mmHg 85%

21 July, Tuesday

Time Temperature Precipitation Wind Pressure Humidity
00:00 +10°C° 0 mm 2 mps 765 mmHg 86%
01:00 +9°C° 0 mm 2 mps 765 mmHg 87%
02:00 +9°C° 0 mm 2 mps 765 mmHg 88%
03:00 +8°C° 0 mm 2 mps 765 mmHg 89%
04:00 +9°C° 0 mm 2 mps 765 mmHg 88%
05:00 +9°C° 0 mm 2 mps 766 mmHg 87%
06:00 +10°C° 0 mm 3 mps 766 mmHg 87%
07:00 +12°C° 0 mm 2 mps 766 mmHg 81%
08:00 +14°C° 0 mm 2 mps 766 mmHg 76%
09:00 +15°C° 0 mm 2 mps 766 mmHg 71%
10:00 +16°C° 0.1 mm 2 mps 766 mmHg 68%
11:00 +17°C° 0.1 mm 2 mps 766 mmHg 65%
12:00 +18°C° 0.1 mm 2 mps 766 mmHg 62%
13:00 +18°C° 0.1 mm 3 mps 766 mmHg 61%
14:00 +18°C° 0.1 mm 3 mps 766 mmHg 61%
15:00 +19°C° 0.1 mm 4 mps 766 mmHg 60%
16:00 +18°C° 0.1 mm 4 mps 766 mmHg 63%
17:00 +17°C° 0.1 mm 4 mps 766 mmHg 66%
18:00 +16°C° 0.1 mm 5 mps 765 mmHg 70%
19:00 +14°C° 0 mm 5 mps 766 mmHg 74%
20:00 +13°C° 0 mm 5 mps 766 mmHg 78%
21:00 +10°C° 0 mm 5 mps 766 mmHg 82%
22:00 +11°C° 0 mm 4 mps 766 mmHg 83%
23:00 +10°C° 0 mm 4 mps 766 mmHg 85%
Show more